Weather Service Report


926 
ASUS41 KBOX 300710
RWRBOX

REGIONAL WEATHER ROUNDUP
NATIONAL WEATHER SERVICE TAUNTON MA
300 AM EDT SAT JUL 30 2016

NOTE:  "FAIR" INDICATES FEW OR NO CLOUDS BELOW 12,000 FEET WITH NO 
SIGNIFICANT WEATHER AND/OR OBSTRUCTIONS TO VISIBILITY.

MAZALL-300800-
EASTERN MASSACHUSETTS
  
CITY           SKY/WX    TMP DP  RH WIND       PRES   REMARKS
BOSTON         PTCLDY    73  67  81 NW6       29.93S                  
BEVERLY        MOCLDY    68  67  96 CALM      29.93R                  
LAWRENCE       CLEAR     69  67  93 CALM      29.96R                  
BEDFORD        CLEAR     66  62  87 CALM      29.93S                  
BLUE HILL        N/A     67  65  93 NW8       29.95R                  
NORWOOD        FOG       63  62  97 CALM      29.93S VSB 3/4          
MARSHFIELD     FOG       68  68 100 CALM      29.92S VSB<1/4          
PLYMOUTH       CLEAR     66  65  96 CALM      29.93S                  
TAUNTON        FOG       62  60  93 CALM      29.92S VSB 1/4          
NEW BEDFORD    CLEAR     67  64  90 CALM      29.92R                  
$$

MAZALL-300800-
CAPE COD AND THE ISLANDS
  
CITY           SKY/WX    TMP DP  RH WIND       PRES   REMARKS
FALMOUTH       NOT AVBL                                               
HYANNIS          N/A    N/A N/A N/A MISG      29.91S                  
CHATHAM        CLOUDY    70  69  97 N6        29.92S                  
PROVINCETOWN   CLOUDY    68  68 100 N8        29.93R                  
NANTUCKET      CLOUDY    71  68  90 N8        29.91S                  
MARTHAS VNYRD  FOG       66  65  96 CALM      29.92S VSB 1            
$$
 
MAZALL-300800-
CENTRAL AND WESTERN MASSACHUSETTS
  
CITY           SKY/WX    TMP DP  RH WIND       PRES   REMARKS
WORCESTER      CLEAR     70  61  73 NW6       29.98S                  
FITCHBURG      CLEAR     68  64  87 CALM      29.97R                  
ORANGE         FOG       62  62 100 CALM      29.98S VSB 1/4          
SPRINGFIELD    FOG       63  63 100 NE2       29.95R VSB 1/4          
WESTFIELD      CLEAR     67  64  90 N5        29.96R                  
NORTH ADAMS    CLEAR     58  56  93 CALM      30.00S                  
PITTSFIELD     MOCLDY    62  59  90 CALM      29.99S                  
$$
 
RIZALL-300800-
RHODE ISLAND
  
CITY           SKY/WX    TMP DP  RH WIND       PRES   REMARKS
PROVIDENCE     CLEAR     71  66  84 CALM      29.94R                  
NEWPORT        CLEAR     68  68 100 CALM      29.93R FOG              
BLOCK ISLAND   CLEAR     69  66  90 W7        29.94S                  
SMITHFIELD     CLEAR     63  61  94 NW3       29.95S                  
WESTERLY       CLEAR     70  65  84 CALM      29.94S                  
$$
 
CTZALL-300800-
CONNECTICUT
  
CITY           SKY/WX    TMP DP  RH WIND       PRES   REMARKS
BRADLEY INTL   CLEAR     69  66  90 N7        29.96R                  
HARTFORD       CLEAR     74  69  85 N5        29.94R                  
BRIDGEPORT     CLOUDY    73  70  90 CALM      29.93S                  
DANBURY        CLOUDY    67  65  93 SW3       29.97R                  
GROTON         CLEAR     71  67  87 CALM      29.93S                  
NEW HAVEN      CLEAR     69  68  96 CALM      29.94S                  
CHESTER        FAIR      68  68 100 CALM      29.96R                  
MERIDEN        CLEAR     70  66  87 CALM      29.95R                  
WILLIMANTIC    MOCLDY    69  68  96 N6        29.95S                  
OXFORD           N/A     70  64  83 CALM      29.98S                  
$$

MEZ002-015-021-024-NHZ003-005-008-011-012-014-VTZ005-008-300800-
NORTHERN NEW ENGLAND
  
CITY           SKY/WX    TMP DP  RH WIND       PRES   REMARKS
PORTLAND ME    CLEAR     66  59  78 NW5       29.94R                  
BANGOR ME      CLEAR     67  59  75 N7        29.92R                  
CONCORD NH     CLEAR     66  59  78 N3        29.97R                  
MANCHESTER NH  CLEAR     71  60  68 N6        29.94R                  
NASHUA NH      CLEAR     69  64  84 NW6       29.95S                  
PORTSMOUTH NH  MOCLDY    70  63  78 N7        29.92S                  
JAFFREY NH     CLEAR     62  59  90 CALM      30.00R                  
KEENE NH       FOG       64  64 100 NW3       29.99R VSB 1/2          
BURLINGTON VT  FAIR      62  57  83 CALM      30.01S                  
MT. WASHINGTON PTCLDY    45  39  81 NW17        N/A                   
$$

NYZ052-076-300800-
EASTERN NEW YORK
  
CITY           SKY/WX    TMP DP  RH WIND       PRES   REMARKS
ALBANY         PTCLDY    67  59  75 NW3       29.98S                  
NEW YORK CITY  CLOUDY    78  70  76 S3        29.93R                  
$$
 
ANZALL-300800-
MARINE OBSERVATIONS
  
STATION/POSITION TIME  TEMP    WIND        PRES    VSBY  WAVE
                       AIR SEA DIR/SP/G                  HT/PER
                 (UTC) (F)     (DEG/KT/KT) (MB)    (MI)  (FT/S)
BOSTON BUOY      0550   67 71   CALM  /  2 1013.3          1
BUZZARDS BAY     0600   71     350/  4/  4 1013.6R
NANTUCKET SOUND  0550   73 73  330/  8/ 12 1012.4          1
MASS BAY-STELLWA 0604   67 70  290/  2/  2 1013.3R   3/16  1
ISLE OF SHOALS   0600   70     330/  6/  7 1013.1R
S OF BLOCK IS    0625      72                N/A           2/ 7
$$

......................KEY.........................
  SKY/WX - SKY CONDITION/PRESENT WEATHER
  TMP    - TEMPERATURE IN FAHRENHEIT
  DWPT   - DEWPOINT IN FAHRENHEIT
  RH     - RELATIVE HUMIDITY IN PERCENT
  WIND   - DIRECTION AND SPEED IN MPH
  PRES   - MEAN SEA LEVEL PRESSURE IN INCHES OF HG
  WCI    - WIND CHILL INDEX
  VSB    - VISIBILITY IN MILES
  HX     - HEAT INDEX
  TC     - TEMPERATURE IN CELSIUS
  VRB    - VARIABLE WIND DIRECTION
  N/A    - NOT AVAILABLE
  

Return to Home page


Western Regional Climate Center, wrcc@dri.edu